LDX430 LOWS-LGSK

Flight info

Callsign LDX430
Flight time 1h 33m
Altitude 45000
Route VERDA DCT ARLON DCT TIVNU DCT KEB DCT MEDUX UM867 KOGAT DCT MAKED UL617 TSL
Aircraft C700/M-SBDGHM1RWXY/LB2

Departure

Time 2026-04-21 06:59
Airport Salzburg Airport (LOWS)

Arrival

Time 2026-04-21 08:33
Airport Skiathos Island National Airport (LGSK)
Time Latitude Longitude Altitude Speed Heading
2026-04-21 06:29 47.79346 12.99800 1414 ft 0 kts 290°
2026-04-21 06:55 47.79338 12.99789 1414 ft 5 kts 207°
2026-04-21 06:55 47.79305 12.99860 1414 ft 14 kts 72°
2026-04-21 06:56 47.79344 13.00023 1417 ft 19 kts 67°
2026-04-21 06:56 47.79447 13.00055 1416 ft 18 kts 335°
2026-04-21 06:56 47.79563 12.99984 1418 ft 18 kts 337°
2026-04-21 06:56 47.79681 12.99909 1415 ft 17 kts 337°
2026-04-21 06:57 47.79793 12.99837 1414 ft 18 kts 336°
2026-04-21 06:57 47.79909 12.99764 1414 ft 19 kts 337°
2026-04-21 06:57 47.80029 12.99687 1418 ft 19 kts 338°
2026-04-21 06:57 47.80154 12.99608 1415 ft 20 kts 338°
2026-04-21 06:58 47.80258 12.99622 1417 ft 13 kts 46°
2026-04-21 06:58 47.80288 12.99753 1417 ft 14 kts 96°
2026-04-21 06:58 47.80229 12.99826 1415 ft 10 kts 157°
2026-04-21 06:58 47.80220 12.99832 1415 ft 0 kts 156°
2026-04-21 06:59 47.80216 12.99835 1415 ft 3 kts 157°
2026-04-21 06:59 47.80039 12.99948 1416 ft 72 kts 156°
2026-04-21 06:59 47.79265 13.00444 1466 ft 163 kts 157°
2026-04-21 06:59 47.78067 13.01163 2273 ft 201 kts 158°
2026-04-21 07:00 47.76777 13.02323 3655 ft 230 kts 139°
2026-04-21 07:00 47.75555 13.04049 5114 ft 254 kts 138°
2026-04-21 07:00 47.74097 13.05710 6627 ft 273 kts 149°
2026-04-21 07:00 47.72414 13.07096 8366 ft 278 kts 154°
2026-04-21 07:01 47.70700 13.08532 10087 ft 290 kts 151°
2026-04-21 07:01 47.68870 13.10046 11243 ft 316 kts 155°
2026-04-21 07:01 47.64591 13.12941 13715 ft 357 kts 156°
2026-04-21 07:02 47.62332 13.14679 14590 ft 384 kts 147°
2026-04-21 07:02 47.60400 13.17324 16493 ft 374 kts 133°
2026-04-21 07:02 47.58740 13.20351 17900 ft 388 kts 125°
2026-04-21 07:02 47.57278 13.23826 18862 ft 402 kts 120°
2026-04-21 07:03 47.55907 13.27454 20076 ft 407 kts 120°
2026-04-21 07:03 47.54409 13.31073 21168 ft 416 kts 123°
2026-04-21 07:03 47.52665 13.34517 22249 ft 422 kts 133°
2026-04-21 07:03 47.50583 13.37627 23313 ft 430 kts 136°
2026-04-21 07:04 47.48473 13.40819 24200 ft 439 kts 134°
2026-04-21 07:04 47.46381 13.44182 24958 ft 448 kts 134°
2026-04-21 07:04 47.44240 13.47601 25649 ft 458 kts 135°
2026-04-21 07:04 47.42005 13.51022 26319 ft 466 kts 136°
2026-04-21 07:05 47.39728 13.54492 26917 ft 475 kts 136°
2026-04-21 07:05 47.37439 13.58070 27521 ft 483 kts 136°
2026-04-21 07:05 47.35124 13.61708 28029 ft 491 kts 136°
2026-04-21 07:05 47.32779 13.65328 28569 ft 497 kts 137°
2026-04-21 07:06 47.30366 13.69018 29081 ft 503 kts 137°
2026-04-21 07:06 47.27927 13.72778 29509 ft 510 kts 137°
2026-04-21 07:06 47.25471 13.76590 29993 ft 517 kts 137°
2026-04-21 07:06 47.22973 13.80442 30363 ft 521 kts 138°
2026-04-21 07:07 47.20453 13.84294 30842 ft 526 kts 138°
2026-04-21 07:07 47.17915 13.88179 31344 ft 527 kts 138°
2026-04-21 07:07 47.15387 13.92065 31908 ft 526 kts 137°
2026-04-21 07:07 47.12854 13.95949 32471 ft 526 kts 138°
2026-04-21 07:08 47.10313 13.99822 33007 ft 526 kts 138°
2026-04-21 07:08 47.07774 14.03684 33561 ft 526 kts 138°
2026-04-21 07:08 47.05236 14.07552 34058 ft 526 kts 138°
2026-04-21 07:08 47.02697 14.11420 34503 ft 526 kts 137°
2026-04-21 07:09 47.00162 14.15268 34951 ft 524 kts 137°
2026-04-21 07:09 46.97632 14.19098 35401 ft 523 kts 137°
2026-04-21 07:09 46.95108 14.22919 35891 ft 521 kts 136°
2026-04-21 07:09 46.92627 14.26674 36364 ft 519 kts 136°
2026-04-21 07:10 46.90117 14.30464 36872 ft 516 kts 136°
2026-04-21 07:10 46.87617 14.34229 37381 ft 514 kts 135°
2026-04-21 07:10 46.85134 14.37966 37888 ft 511 kts 135°
2026-04-21 07:10 46.82663 14.41682 38381 ft 509 kts 135°
2026-04-21 07:11 46.80206 14.45371 38844 ft 506 kts 135°
2026-04-21 07:11 46.77754 14.49047 39213 ft 504 kts 135°
2026-04-21 07:11 46.75313 14.52701 39551 ft 502 kts 135°
2026-04-21 07:11 46.72877 14.56343 39878 ft 501 kts 135°
2026-04-21 07:12 46.70441 14.59980 40217 ft 500 kts 135°
2026-04-21 07:12 46.68012 14.63600 40539 ft 499 kts 135°
2026-04-21 07:12 46.65590 14.67204 40852 ft 498 kts 135°
2026-04-21 07:12 46.63165 14.70810 41160 ft 497 kts 135°
2026-04-21 07:13 46.60748 14.74400 41469 ft 496 kts 135°
2026-04-21 07:13 46.58369 14.77927 41767 ft 495 kts 135°
2026-04-21 07:13 46.55962 14.81491 42058 ft 494 kts 135°
2026-04-21 07:13 46.53556 14.85047 42349 ft 493 kts 135°
2026-04-21 07:14 46.51156 14.88592 42643 ft 492 kts 136°
2026-04-21 07:14 46.48754 14.92135 42918 ft 491 kts 136°
2026-04-21 07:14 46.46360 14.95661 43199 ft 490 kts 136°
2026-04-21 07:14 46.43969 14.99177 43475 ft 489 kts 136°
2026-04-21 07:15 46.41581 15.02685 43722 ft 489 kts 136°
2026-04-21 07:15 46.40803 15.03826 43811 ft 488 kts 136°
2026-04-21 07:15 46.39761 15.05351 43921 ft 488 kts 136°
2026-04-21 07:15 46.37366 15.08827 44191 ft 487 kts 136°
2026-04-21 07:16 46.34999 15.12245 44431 ft 486 kts 136°
2026-04-21 07:16 46.32612 15.15705 44669 ft 486 kts 136°
2026-04-21 07:16 46.30231 15.19164 44892 ft 485 kts 136°
2026-04-21 07:16 46.27846 15.22614 45054 ft 486 kts 136°
2026-04-21 07:17 46.23017 15.29572 45059 ft 494 kts 136°
2026-04-21 07:17 46.18111 15.36640 45074 ft 501 kts 136°
2026-04-21 07:18 46.13160 15.43771 45081 ft 505 kts 136°
2026-04-21 07:18 46.08137 15.50907 45081 ft 508 kts 137°
2026-04-21 07:19 46.03144 15.58066 45085 ft 509 kts 136°
2026-04-21 07:19 45.98135 15.65197 45085 ft 504 kts 137°
2026-04-21 07:20 45.93116 15.72318 45083 ft 508 kts 137°
2026-04-21 07:20 45.88073 15.79468 45085 ft 509 kts 137°
2026-04-21 07:21 45.83060 15.86541 45084 ft 506 kts 137°
2026-04-21 07:21 45.78044 15.93613 45077 ft 506 kts 137°
2026-04-21 07:22 45.72995 16.00700 45080 ft 510 kts 137°
2026-04-21 07:22 45.67912 16.07826 45081 ft 512 kts 137°
2026-04-21 07:23 45.62849 16.14899 45077 ft 506 kts 137°
2026-04-21 07:23 45.57796 16.21940 45073 ft 509 kts 137°
2026-04-21 07:24 45.52702 16.29021 45071 ft 512 kts 137°
2026-04-21 07:24 45.47608 16.36084 45066 ft 508 kts 137°
2026-04-21 07:25 45.42546 16.43080 45062 ft 508 kts 137°
2026-04-21 07:25 45.37483 16.50062 45056 ft 512 kts 137°
2026-04-21 07:26 45.32369 16.57096 45054 ft 510 kts 138°
2026-04-21 07:26 45.27280 16.64075 45055 ft 507 kts 138°
2026-04-21 07:27 45.22186 16.71043 45046 ft 511 kts 138°
2026-04-21 07:27 45.17051 16.78050 45053 ft 512 kts 138°
2026-04-21 07:28 45.11961 16.84977 45047 ft 509 kts 138°
2026-04-21 07:28 45.06853 16.91910 45048 ft 508 kts 138°
2026-04-21 07:29 45.01732 16.98842 45046 ft 511 kts 138°
2026-04-21 07:29 44.96579 17.05801 45046 ft 512 kts 138°
2026-04-21 07:30 44.91482 17.12827 45039 ft 512 kts 137°
2026-04-21 07:30 44.86399 17.19869 45043 ft 512 kts 138°
2026-04-21 07:31 44.81287 17.26867 45042 ft 513 kts 137°
2026-04-21 07:31 44.76210 17.33859 45041 ft 514 kts 137°
2026-04-21 07:32 44.71152 17.40762 45036 ft 491 kts 137°
2026-04-21 07:32 44.66217 17.47504 45033 ft 499 kts 138°
2026-04-21 07:33 44.61196 17.54333 45035 ft 506 kts 138°
2026-04-21 07:33 44.56103 17.61253 45037 ft 511 kts 137°
2026-04-21 07:34 44.50971 17.68200 45039 ft 514 kts 137°
2026-04-21 07:34 44.45846 17.75126 45044 ft 514 kts 138°
2026-04-21 07:35 44.40709 17.82046 45042 ft 511 kts 138°
2026-04-21 07:35 44.35571 17.88950 45038 ft 513 kts 138°
2026-04-21 07:36 44.30404 17.95877 45043 ft 516 kts 138°
2026-04-21 07:36 44.25277 18.02731 45046 ft 517 kts 138°
2026-04-21 07:37 44.20086 18.09654 45039 ft 516 kts 138°
2026-04-21 07:37 44.14887 18.16568 45039 ft 517 kts 138°
2026-04-21 07:38 44.09671 18.23490 45038 ft 518 kts 138°
2026-04-21 07:38 44.04482 18.30357 45029 ft 517 kts 138°
2026-04-21 07:39 43.99268 18.37240 45020 ft 517 kts 138°
2026-04-21 07:39 43.94046 18.44116 45025 ft 516 kts 138°
2026-04-21 07:40 43.88931 18.51069 45021 ft 512 kts 137°
2026-04-21 07:40 43.83847 18.57952 45030 ft 512 kts 137°
2026-04-21 07:41 43.78771 18.64850 45031 ft 515 kts 137°
2026-04-21 07:41 43.73664 18.71748 45039 ft 511 kts 137°
2026-04-21 07:42 43.68578 18.78612 45043 ft 511 kts 137°
2026-04-21 07:42 43.63453 18.85504 45041 ft 516 kts 137°
2026-04-21 07:43 43.58316 18.92402 45036 ft 513 kts 137°
2026-04-21 07:43 43.53196 18.99255 45044 ft 514 kts 137°
2026-04-21 07:44 43.49069 19.05163 45051 ft 516 kts 133°
2026-04-21 07:44 43.44296 19.12578 45038 ft 517 kts 133°
2026-04-21 07:45 43.39552 19.19947 45028 ft 518 kts 133°
2026-04-21 07:45 43.34783 19.27338 45022 ft 515 kts 133°
2026-04-21 07:46 43.30034 19.34668 45021 ft 513 kts 133°
2026-04-21 07:46 43.25264 19.42023 45016 ft 517 kts 133°
2026-04-21 07:47 43.20465 19.49395 45018 ft 518 kts 133°
2026-04-21 07:47 43.15681 19.56734 45013 ft 515 kts 134°
2026-04-21 07:48 43.10902 19.64037 45011 ft 515 kts 134°
2026-04-21 07:48 43.06109 19.71351 45007 ft 517 kts 134°
2026-04-21 07:49 43.01326 19.78626 45007 ft 519 kts 134°
2026-04-21 07:49 42.96473 19.85993 45006 ft 517 kts 134°
2026-04-21 07:50 42.91700 19.93217 45001 ft 513 kts 134°
2026-04-21 07:50 42.86891 20.00477 45001 ft 518 kts 134°
2026-04-21 07:51 42.82039 20.07787 45009 ft 517 kts 134°
2026-04-21 07:51 42.77232 20.15008 45001 ft 514 kts 134°
2026-04-21 07:52 42.72435 20.22195 45010 ft 518 kts 134°
2026-04-21 07:52 42.67581 20.29455 45005 ft 516 kts 134°
2026-04-21 07:53 42.62751 20.36654 45003 ft 517 kts 134°
2026-04-21 07:53 42.57885 20.43893 45011 ft 520 kts 134°
2026-04-21 07:54 42.53029 20.51100 45008 ft 516 kts 134°
2026-04-21 07:54 42.48181 20.58272 45005 ft 516 kts 135°
2026-04-21 07:55 42.43312 20.65463 45017 ft 519 kts 135°
2026-04-21 07:55 42.38422 20.72663 45011 ft 519 kts 135°
2026-04-21 07:56 42.33578 20.79781 45010 ft 517 kts 135°
2026-04-21 07:56 42.28694 20.86938 45006 ft 517 kts 135°
2026-04-21 07:57 42.23820 20.94064 45014 ft 516 kts 135°
2026-04-21 07:57 42.18947 21.01170 45014 ft 516 kts 135°
2026-04-21 07:58 42.14049 21.08294 45014 ft 520 kts 135°
2026-04-21 07:58 42.09122 21.15448 45019 ft 519 kts 135°
2026-04-21 07:59 42.04252 21.22496 45017 ft 516 kts 135°
2026-04-21 07:59 41.99355 21.29567 45012 ft 518 kts 135°
2026-04-21 08:00 41.94414 21.36686 45011 ft 522 kts 135°
2026-04-21 08:00 41.89458 21.43811 45014 ft 519 kts 135°
2026-04-21 08:01 41.84533 21.50871 45021 ft 517 kts 135°
2026-04-21 08:02 41.77116 21.61471 45018 ft 522 kts 136°
2026-04-21 08:02 41.72177 21.68512 45017 ft 520 kts 136°
2026-04-21 08:03 41.67240 21.75528 45010 ft 517 kts 136°
2026-04-21 08:03 41.62275 21.82568 44997 ft 522 kts 136°
2026-04-21 08:04 41.57277 21.89642 45002 ft 523 kts 136°
2026-04-21 08:04 41.52293 21.96676 44993 ft 520 kts 136°
2026-04-21 08:05 41.47317 22.03682 44982 ft 520 kts 136°
2026-04-21 08:05 41.42333 22.10683 44976 ft 521 kts 136°
2026-04-21 08:06 41.37358 22.17653 44976 ft 522 kts 136°
2026-04-21 08:06 41.32339 22.24671 44978 ft 523 kts 136°
2026-04-21 08:07 41.27316 22.31676 44963 ft 524 kts 136°
2026-04-21 08:07 41.22281 22.38683 44957 ft 524 kts 137°
2026-04-21 08:08 41.17233 22.45686 44952 ft 525 kts 137°
2026-04-21 08:08 41.11846 22.52062 44947 ft 520 kts 149°
2026-04-21 08:09 41.05635 22.56847 44952 ft 515 kts 156°
2026-04-21 08:09 40.99336 22.61343 44946 ft 512 kts 156°
2026-04-21 08:10 40.93069 22.65783 44944 ft 513 kts 156°
2026-04-21 08:10 40.86606 22.69774 44939 ft 511 kts 163°
2026-04-21 08:11 40.79978 22.73085 44929 ft 509 kts 162°
2026-04-21 08:11 40.73534 22.76934 44932 ft 506 kts 161°
2026-04-21 08:12 40.66988 22.80443 44931 ft 510 kts 162°
2026-04-21 08:12 40.60480 22.84147 44652 ft 499 kts 161°
2026-04-21 08:12 40.57339 22.85912 44356 ft 484 kts 162°
2026-04-21 08:13 40.54229 22.87593 44055 ft 483 kts 163°
2026-04-21 08:13 40.51156 22.89272 43764 ft 487 kts 162°
2026-04-21 08:13 40.48038 22.91074 43478 ft 489 kts 161°
2026-04-21 08:13 40.44884 22.92745 43198 ft 486 kts 163°
2026-04-21 08:14 40.41746 22.94371 42927 ft 485 kts 163°
2026-04-21 08:14 40.38623 22.96041 42655 ft 484 kts 162°
2026-04-21 08:14 40.35523 22.97809 42169 ft 488 kts 161°
2026-04-21 08:14 40.32415 22.99577 41596 ft 484 kts 162°
2026-04-21 08:15 40.29308 23.01275 40844 ft 482 kts 162°
2026-04-21 08:15 40.26216 23.02944 40130 ft 480 kts 162°
2026-04-21 08:15 40.23148 23.04639 39432 ft 478 kts 162°
2026-04-21 08:15 40.20095 23.06344 38755 ft 477 kts 162°
2026-04-21 08:16 40.17027 23.08032 37950 ft 479 kts 162°
2026-04-21 08:16 40.13950 23.09708 37140 ft 480 kts 162°
2026-04-21 08:16 40.10863 23.11400 36358 ft 482 kts 162°
2026-04-21 08:16 40.07809 23.13084 35648 ft 482 kts 161°
2026-04-21 08:17 40.04711 23.14786 34970 ft 482 kts 162°
2026-04-21 08:17 40.01616 23.16474 34325 ft 483 kts 161°
2026-04-21 08:17 39.98506 23.18171 33665 ft 486 kts 161°
2026-04-21 08:17 39.95381 23.19881 32973 ft 488 kts 161°
2026-04-21 08:18 39.92241 23.21598 32310 ft 490 kts 161°
2026-04-21 08:18 39.89097 23.23312 31667 ft 491 kts 162°
2026-04-21 08:18 39.85940 23.25029 31063 ft 492 kts 162°
2026-04-21 08:18 39.82768 23.26754 30255 ft 496 kts 162°
2026-04-21 08:19 39.79596 23.28482 29316 ft 490 kts 161°
2026-04-21 08:19 39.76483 23.30178 28345 ft 480 kts 162°
2026-04-21 08:19 39.73421 23.31836 27367 ft 475 kts 162°
2026-04-21 08:19 39.70388 23.33475 26334 ft 467 kts 161°
2026-04-21 08:20 39.67413 23.35089 25343 ft 460 kts 161°
2026-04-21 08:20 39.64459 23.36688 24385 ft 455 kts 161°
2026-04-21 08:20 39.61559 23.38254 23440 ft 449 kts 161°
2026-04-21 08:20 39.58694 23.39801 22365 ft 442 kts 161°
2026-04-21 08:21 39.55892 23.41315 21322 ft 432 kts 161°
2026-04-21 08:21 39.53092 23.42820 20965 ft 449 kts 161°
2026-04-21 08:21 39.50215 23.44361 20455 ft 439 kts 161°
2026-04-21 08:21 39.47501 23.45841 19461 ft 406 kts 161°
2026-04-21 08:22 39.44866 23.47260 18516 ft 413 kts 161°
2026-04-21 08:22 39.42272 23.48638 17496 ft 403 kts 161°
2026-04-21 08:22 39.39719 23.50010 16451 ft 389 kts 160°
2026-04-21 08:22 39.37282 23.51326 15445 ft 371 kts 160°
2026-04-21 08:23 39.34946 23.52577 14460 ft 353 kts 161°
2026-04-21 08:23 39.32822 23.53718 13438 ft 311 kts 161°
2026-04-21 08:23 39.30915 23.54739 12367 ft 285 kts 161°
2026-04-21 08:23 39.29108 23.55697 11356 ft 284 kts 161°
2026-04-21 08:24 39.27250 23.56682 10385 ft 292 kts 160°
2026-04-21 08:24 39.25353 23.57698 9398 ft 297 kts 160°
2026-04-21 08:24 39.23438 23.58725 8380 ft 299 kts 159°
2026-04-21 08:24 39.21598 23.59972 7373 ft 301 kts 144°
2026-04-21 08:25 39.20257 23.61955 6379 ft 282 kts 119°
2026-04-21 08:25 39.19717 23.64236 5350 ft 257 kts 93°
2026-04-21 08:25 39.19998 23.66399 4322 ft 236 kts 65°
2026-04-21 08:25 39.20981 23.67837 3984 ft 195 kts 27°
2026-04-21 08:26 39.22198 23.68135 3994 ft 168 kts 349°
2026-04-21 08:26 39.23147 23.67437 4007 ft 161 kts 315°
2026-04-21 08:26 39.23958 23.66368 4015 ft 168 kts 313°
2026-04-21 08:26 39.24779 23.65284 3933 ft 173 kts 313°
2026-04-21 08:27 39.25620 23.64170 3732 ft 170 kts 313°
2026-04-21 08:27 39.26435 23.63081 3536 ft 168 kts 313°
2026-04-21 08:27 39.27245 23.62002 3350 ft 167 kts 313°
2026-04-21 08:27 39.28052 23.60931 3210 ft 163 kts 313°
2026-04-21 08:28 39.28852 23.59902 3195 ft 165 kts 319°
2026-04-21 08:28 39.29950 23.59433 3110 ft 174 kts 356°
2026-04-21 08:28 39.31095 23.58985 2839 ft 170 kts 323°
2026-04-21 08:28 39.31710 23.57752 2563 ft 164 kts 281°
2026-04-21 08:29 39.31522 23.56360 2280 ft 162 kts 239°
2026-04-21 08:29 39.30695 23.55404 2024 ft 158 kts 213°
2026-04-21 08:29 39.29656 23.54942 1752 ft 162 kts 187°
2026-04-21 08:29 39.28561 23.54829 1724 ft 149 kts 193°
2026-04-21 08:30 39.27650 23.54449 1718 ft 130 kts 202°
2026-04-21 08:30 39.26813 23.54039 1709 ft 128 kts 202°
2026-04-21 08:30 39.25968 23.53672 1709 ft 127 kts 198°
2026-04-21 08:30 39.25103 23.53385 1638 ft 133 kts 193°
2026-04-21 08:31 39.24198 23.53167 1434 ft 128 kts 192°
2026-04-21 08:31 39.23330 23.52936 1204 ft 127 kts 194°
2026-04-21 08:31 39.22509 23.52593 1064 ft 121 kts 204°
2026-04-21 08:31 39.21736 23.52141 933 ft 121 kts 205°
2026-04-21 08:32 39.20978 23.51781 813 ft 115 kts 197°
2026-04-21 08:32 39.20221 23.51469 645 ft 112 kts 197°
2026-04-21 08:32 39.19483 23.51139 389 ft 113 kts 197°
2026-04-21 08:32 39.18742 23.50821 155 ft 112 kts 196°
2026-04-21 08:33 39.18048 23.50521 43 ft 96 kts 198°
2026-04-21 08:33 39.17572 23.50304 35 ft 47 kts 199°
2026-04-21 08:33 39.17442 23.50247 32 ft 16 kts 198°
2026-04-21 08:33 39.17387 23.50221 30 ft 6 kts 65°
2026-04-21 08:34 39.17410 23.50238 31 ft 5 kts 17°
2026-04-21 08:34 39.17449 23.50254 32 ft 8 kts 17°
2026-04-21 08:34 39.17517 23.50281 34 ft 11 kts
2026-04-21 08:34 39.17580 23.50227 33 ft 12 kts 314°
2026-04-21 08:35 39.17657 23.50235 33 ft 12 kts 20°
2026-04-21 08:35 39.17715 23.50257 33 ft 2 kts
2026-04-21 08:35 39.17719 23.50258 33 ft 0 kts
2026-04-21 08:35 39.17722 23.50256 33 ft 3 kts 339°
2026-04-21 08:36 39.17736 23.50213 33 ft 6 kts 279°
2026-04-21 08:36 39.17710 23.50199 33 ft 2 kts 116°
2026-04-21 08:36 39.17704 23.50222 33 ft 0 kts 109°
2026-04-21 08:36 39.17703 23.50224 33 ft 1 kts 110°
2026-04-21 08:37 39.17703 23.50225 33 ft 0 kts 110°